Location: ???????
(55.4362°N, 38.1183°E)
Time: 14:50:54
(UTC+00:00)

Lacrosse 4 Rocket - Pass Details

Date: 26 October 2021
Orbit: 537 x 619 km, 68.0° (Epoch: 03 December)

Event Time Altitude Azimuth Distance (km) Brightness Sun altitude
Rises 15:58:10 0° 313° (NW) 2,812 5.7 -17.0°
Reaches altitude 10° 16:00:44 10° 299° (WNW) 1,923 5.1 -17.4°
Maximum altitude 16:04:07 23° 247° (WSW) 1,291 3.9 -17.9°
Drops below altitude 10° 16:07:34 10° 195° (SSW) 1,949 4.2 -18.3°
Sets 16:10:11 0° 181° (S) 2,859 4.9 -18.7°
